PBO Station Position Time Series. Reference Frame : NAM14
Format Version,1.1.0
4-character ID,PUB5
Station name,Pueblo_5
Begin Date, 2007-08-30
End Date, 2016-08-04
Release Date, 2021-02-19
Reference position, 38.2868367017 North Latitude, -104.3455156888 East Longitude, 1414.44435 meters elevation,
Date, North (mm), East (mm), Vertical (mm), North Std. Deviation (mm), East Std. Deviation (mm),              Vertical Std. Deviation (mm), Quality,
2007-08-30,0.00, 0.00, 0.00, 1.94, 1.59, 7.04, repro,
2007-08-31,0.87, 1.92, 1.76, 1.97, 1.63, 7.23, repro,
2007-09-01,-0.29, 1.75, 6.30, 1.96, 1.60, 7.11, repro,
2007-09-02,1.07, 0.80, 6.08, 1.99, 1.60, 7.12, repro,
2007-09-03,1.79, 0.01, 4.72, 2.00, 1.61, 7.20, repro,
2007-09-04,-0.13, 0.79, 5.92, 2.06, 1.66, 7.42, repro,
2007-09-05,0.01, -0.03, 11.20, 2.63, 2.12, 9.62, repro,
2007-09-08,1.06, 2.21, 4.08, 2.18, 1.77, 7.70, repro,
2007-09-09,2.18, 0.29, 3.48, 2.17, 1.82, 7.70, repro,
2007-09-10,3.38, 0.66, 1.50, 2.29, 1.84, 8.10, repro,
2007-09-11,1.36, 0.24, 4.48, 2.58, 2.00, 9.16, repro,
2007-09-12,0.21, 1.25, 1.75, 1.99, 1.60, 7.14, repro,
2007-09-13,0.43, 1.33, 5.20, 2.15, 1.64, 7.50, repro,
2007-09-14,0.50, 1.12, 2.69, 2.08, 1.74, 7.52, repro,
2007-09-15,1.85, 2.02, 1.41, 2.07, 1.65, 7.33, repro,
2007-09-16,0.57, 0.24, 4.11, 2.13, 1.66, 7.53, repro,
2007-09-17,2.75, 1.52, 13.06, 2.12, 1.77, 7.76, repro,
2007-09-18,1.74, 2.22, 4.27, 2.14, 1.75, 7.68, repro,
2007-09-19,1.32, 0.39, 2.15, 1.95, 1.58, 6.99, repro,
2007-09-20,1.66, 1.82, 8.92, 1.98, 1.64, 7.13, repro,
2007-09-21,2.07, 0.85, 3.48, 2.11, 1.75, 7.61, repro,
2007-09-22,1.38, -0.25, -3.46, 2.05, 1.65, 7.37, repro,
2007-09-23,1.32, 1.83, 7.40, 2.09, 1.70, 7.58, repro,
2007-09-24,1.86, -0.40, 6.86, 2.14, 1.67, 7.56, repro,
2007-09-25,2.39, -0.73, 1.71, 2.03, 1.65, 7.20, repro,
2007-09-26,1.70, -0.12, 6.51, 2.16, 1.70, 7.70, repro,
2007-09-27,3.00, 0.32, 4.41, 2.07, 1.68, 7.43, repro,
2007-09-28,1.66, 1.76, 5.73, 2.05, 1.68, 7.53, repro,
2007-09-29,-0.46, -1.03, 18.73, 2.02, 1.65, 7.38, repro,
2007-09-30,2.08, 0.39, 1.76, 2.06, 1.69, 7.49, repro,
2007-10-01,1.35, 0.41, 3.64, 2.04, 1.68, 7.40, repro,
2007-10-02,2.41, 1.39, 1.83, 2.15, 1.79, 7.81, repro,
2007-10-03,1.40, 0.61, 10.53, 2.12, 1.75, 7.61, repro,
2007-10-04,1.03, -0.19, 7.66, 2.10, 1.73, 7.57, repro,
2007-10-05,-1.19, -0.79, 16.58, 2.50, 2.01, 9.16, repro,
2007-10-06,3.70, 1.71, 15.71, 2.60, 2.02, 9.14, repro,
2007-10-07,-0.24, -0.21, 5.42, 2.16, 1.70, 7.71, repro,
2007-10-08,1.43, -0.79, 3.58, 2.34, 1.84, 8.38, repro,
2007-10-09,0.75, 0.52, 4.01, 2.26, 1.85, 8.04, repro,
2007-10-10,1.28, -0.21, 3.07, 2.21, 1.77, 7.86, repro,
2007-10-11,1.70, 0.32, 4.09, 2.05, 1.70, 7.45, repro,
2007-10-12,3.07, 0.27, 13.33, 2.20, 1.88, 8.14, repro,
2007-10-13,1.85, 0.78, 11.69, 2.00, 1.65, 7.25, repro,
2007-10-14,2.64, 0.55, 8.65, 2.01, 1.65, 7.29, repro,
2007-10-15,-0.12, -0.34, 3.39, 2.05, 1.73, 7.40, repro,
2007-10-16,0.43, 0.64, 8.67, 1.99, 1.64, 7.23, repro,
2007-10-17,0.63, -0.50, 10.92, 2.02, 1.67, 7.37, repro,
2007-10-18,2.16, 0.04, 13.36, 2.07, 1.71, 7.53, repro,
2007-10-19,0.50, 0.31, 12.06, 2.02, 1.64, 7.29, repro,
2007-10-20,0.42, -0.43, 14.78, 2.02, 1.68, 7.31, repro,
2007-10-21,1.02, -0.01, 8.71, 2.01, 1.66, 7.34, repro,
2007-10-22,0.76, 0.68, -1.87, 1.98, 1.64, 7.20, repro,
2007-10-23,1.60, -0.44, -0.00, 2.07, 1.69, 7.48, repro,
2007-10-24,0.42, 0.15, -0.72, 2.09, 1.73, 7.52, repro,
2007-10-25,0.40, 0.30, 0.64, 2.02, 1.63, 7.20, repro,
2007-10-26,0.75, -0.14, 0.50, 2.06, 1.67, 7.42, repro,
2007-10-27,0.73, 0.87, -8.29, 1.97, 1.63, 7.13, repro,
2007-10-28,0.05, 0.89, -1.44, 2.00, 1.61, 7.22, repro,
2007-10-29,0.23, 0.99, -2.84, 2.00, 1.61, 7.21, repro,
2007-10-30,-0.17, 1.12, -0.28, 1.96, 1.58, 7.10, repro,
2007-10-31,0.66, 0.64, 0.52, 1.97, 1.58, 7.10, repro,
2007-11-01,0.46, 0.29, -2.91, 1.97, 1.60, 7.11, repro,
2007-11-02,0.56, 0.80, 0.61, 1.99, 1.60, 7.16, repro,
2007-11-03,-0.13, 0.95, -2.72, 1.99, 1.60, 7.18, repro,
2007-11-04,0.34, 1.00, -1.13, 1.98, 1.61, 7.20, repro,
2007-11-05,0.28, 0.84, -3.00, 1.97, 1.59, 7.14, repro,
2007-11-06,0.11, 0.45, -5.47, 1.94, 1.59, 7.08, repro,
2007-11-07,0.41, 0.95, -3.85, 1.96, 1.60, 7.20, repro,
2007-11-08,1.11, 0.34, -0.90, 2.04, 1.66, 7.40, repro,
2007-11-09,0.78, 0.50, 0.20, 2.02, 1.65, 7.38, repro,
2007-11-10,0.26, 1.60, 1.91, 1.99, 1.62, 7.23, repro,
2007-11-11,0.48, 0.44, 4.86, 1.98, 1.62, 7.18, repro,
2007-11-12,0.00, 0.72, 3.84, 1.95, 1.59, 7.09, repro,
2007-11-13,0.00, 0.39, -0.33, 1.96, 1.59, 7.13, repro,
2007-11-14,0.94, 0.43, 1.61, 2.56, 2.30, 9.82, repro,
2007-11-15,0.80, 1.85, -0.17, 1.99, 1.63, 7.28, repro,
2007-11-16,0.26, 1.53, 3.93, 1.98, 1.62, 7.21, repro,
2007-11-17,0.90, 0.79, 5.12, 1.96, 1.59, 7.11, repro,
2007-11-18,0.38, 0.69, 1.75, 1.95, 1.59, 7.11, repro,
2007-11-19,0.62, -0.02, 0.44, 1.94, 1.60, 7.16, repro,
2007-11-20,-0.05, 1.02, 6.24, 2.02, 1.70, 7.54, repro,
2007-11-21,0.07, 1.78, 5.60, 2.00, 1.67, 7.41, repro,
2007-11-22,0.56, 1.48, -1.66, 2.16, 1.82, 7.94, repro,
2007-11-23,0.11, 1.62, 1.27, 2.18, 1.82, 8.07, repro,
2007-11-24,0.12, 1.00, 3.71, 2.02, 1.68, 7.49, repro,
2007-11-25,0.31, 0.96, 5.67, 2.10, 1.71, 7.78, repro,
2007-11-26,0.92, 0.37, 0.68, 2.09, 1.71, 7.65, repro,
2007-11-27,0.67, 0.70, 5.85, 2.10, 1.78, 7.83, repro,
2007-11-28,0.20, -0.36, 1.47, 2.04, 1.70, 7.53, repro,
2007-11-29,-0.64, 1.57, -1.04, 2.08, 1.74, 7.74, repro,
2007-11-30,0.20, 0.32, -2.32, 2.05, 1.74, 7.66, repro,
2007-12-01,0.58, 1.36, 1.93, 2.16, 1.80, 8.15, repro,
2007-12-02,-0.54, 0.70, 3.18, 2.12, 1.76, 7.77, repro,
2007-12-03,1.15, 0.89, -2.09, 2.93, 2.31, 10.91, repro,
2007-12-04,1.04, -0.21, 1.11, 2.31, 1.96, 8.77, repro,
2007-12-05,-0.08, 1.16, 4.85, 2.30, 1.96, 8.76, repro,
2007-12-06,0.55, 0.28, 6.37, 2.36, 1.95, 8.67, repro,
2007-12-07,1.38, 0.26, 7.86, 2.37, 1.91, 8.77, repro,
2007-12-08,0.82, 1.09, 6.14, 2.11, 1.72, 7.77, repro,
2007-12-09,0.85, 1.11, 5.28, 2.48, 2.07, 9.37, repro,
2007-12-10,0.09, 1.60, 4.04, 2.08, 1.71, 7.74, repro,
2007-12-11,0.11, 0.74, 1.95, 2.05, 1.74, 7.81, repro,
2007-12-12,0.22, 1.12, -4.13, 2.21, 1.79, 8.22, repro,
2007-12-13,0.19, 0.29, -4.00, 2.09, 1.70, 7.65, repro,
2007-12-14,0.21, -0.06, -2.54, 2.00, 1.61, 7.18, repro,
2007-12-15,-0.42, 0.35, 2.45, 2.05, 1.68, 7.48, repro,
2007-12-16,-1.36, 1.47, 1.42, 2.03, 1.67, 7.43, repro,
2007-12-17,-0.75, 1.51, 3.36, 2.03, 1.68, 7.46, repro,
2007-12-18,0.45, 0.84, 4.76, 2.04, 1.66, 7.45, repro,
2007-12-19,-0.27, 0.44, 3.20, 2.11, 1.66, 7.58, repro,
2007-12-20,0.27, -0.26, 8.34, 2.01, 1.62, 7.28, repro,
2007-12-21,-0.84, 1.17, 5.05, 2.11, 1.67, 7.59, repro,
2007-12-22,-0.86, 0.96, 6.84, 2.29, 1.82, 8.37, repro,
2007-12-23,0.99, -0.18, -1.56, 2.03, 1.64, 7.31, repro,
2007-12-24,0.40, 0.10, -2.46, 2.08, 1.72, 7.64, repro,
2007-12-25,1.58, -0.05, 6.00, 2.18, 1.74, 7.91, repro,
2007-12-26,1.65, -0.19, 0.31, 2.10, 1.65, 7.43, repro,
2007-12-27,-0.76, 0.68, 10.22, 2.05, 1.68, 7.33, repro,
2007-12-28,-0.60, -0.03, 8.84, 2.54, 2.15, 9.65, repro,
2007-12-29,-0.28, 0.97, 4.90, 2.03, 1.67, 7.22, repro,
2007-12-30,1.01, 0.31, 2.41, 2.12, 1.70, 7.60, repro,
2007-12-31,0.97, 0.41, -0.89, 2.04, 1.61, 7.26, repro,
2008-01-01,1.56, 0.27, -12.08, 2.01, 1.60, 7.18, repro,
2008-01-02,0.19, 0.47, -10.67, 2.01, 1.62, 7.17, repro,
2008-01-03,0.57, 0.54, -5.89, 2.12, 1.67, 7.44, repro,
2008-01-04,0.07, -0.06, -0.30, 2.00, 1.61, 7.12, repro,
2008-01-05,0.94, -1.07, 7.78, 1.98, 1.59, 7.04, repro,
2008-01-06,0.56, 0.22, 8.84, 2.05, 1.64, 7.22, repro,
2008-01-07,0.91, -0.55, 8.75, 1.98, 1.61, 7.08, repro,
2008-01-08,1.02, -0.13, 0.52, 2.07, 1.64, 7.35, repro,
2008-01-09,-0.20, -0.01, 5.90, 2.08, 1.64, 7.34, repro,
2008-01-10,0.30, 0.16, 7.41, 1.97, 1.59, 7.04, repro,
2008-01-11,0.89, -0.72, 4.56, 2.00, 1.60, 7.10, repro,
2008-01-12,1.44, -0.46, 0.92, 2.28, 1.92, 8.39, repro,
2008-01-13,1.19, 0.31, -2.76, 1.99, 1.64, 7.30, repro,
2008-01-14,1.20, 0.16, -2.12, 2.02, 1.64, 7.38, repro,
2008-01-15,0.65, 0.44, 4.23, 2.00, 1.63, 7.21, repro,
2008-01-16,0.58, 0.92, 3.39, 2.06, 1.62, 7.38, repro,
2008-01-17,1.09, -0.24, 1.40, 2.08, 1.64, 7.57, repro,
2008-01-18,1.08, 0.29, 1.66, 1.98, 1.64, 7.26, repro,
2008-01-19,0.98, 1.45, -4.75, 2.02, 1.64, 7.41, repro,
2008-01-20,1.44, 1.25, -6.43, 2.45, 2.21, 9.20, repro,
2008-01-21,0.69, 1.05, 0.58, 2.45, 2.10, 8.90, repro,
2008-01-22,1.39, 0.76, -0.68, 2.05, 1.65, 7.46, repro,
2008-01-23,0.93, 0.68, -0.52, 2.00, 1.62, 7.26, repro,
2008-01-24,1.32, 1.03, -2.56, 2.03, 1.64, 7.33, repro,
2008-01-25,-0.01, 0.86, 3.35, 2.06, 1.67, 7.50, repro,
2008-01-26,1.01, 0.93, 0.54, 2.04, 1.66, 7.48, repro,
2008-01-27,0.44, -0.09, 4.21, 2.05, 1.66, 7.47, repro,
2008-01-28,1.97, -0.31, 12.60, 2.02, 1.65, 7.46, repro,
2008-01-29,0.09, -0.02, 7.83, 2.21, 1.75, 8.05, repro,
2008-01-30,0.39, 0.85, 6.93, 2.15, 1.72, 7.78, repro,
2008-01-31,0.91, 0.29, 2.43, 2.04, 1.66, 7.49, repro,
2008-02-01,0.97, 0.35, 0.42, 2.02, 1.64, 7.33, repro,
2008-02-02,0.61, -0.04, 1.83, 2.07, 1.66, 7.49, repro,
2008-02-03,0.14, 0.78, 4.25, 2.05, 1.65, 7.46, repro,
2008-02-04,1.94, 0.50, 2.97, 1.98, 1.61, 7.28, repro,
2008-02-05,0.75, -1.09, 7.14, 2.21, 1.80, 8.12, repro,
2008-02-06,-0.07, 0.10, 11.06, 2.10, 1.69, 7.58, repro,
2008-02-07,1.08, -0.38, 3.24, 2.05, 1.67, 7.46, repro,
2008-02-08,0.87, 0.09, 6.62, 2.00, 1.61, 7.29, repro,
2008-02-09,0.65, 0.46, -0.18, 1.98, 1.60, 7.21, repro,
2008-02-10,0.80, 0.48, -5.47, 1.97, 1.61, 7.24, repro,
2008-02-11,0.93, 0.89, 1.78, 1.96, 1.61, 7.19, repro,
2008-02-12,0.87, -0.24, -3.37, 1.95, 1.59, 7.10, repro,
2008-02-13,1.83, 0.43, 2.28, 1.95, 1.60, 7.11, repro,
2008-02-14,0.10, 1.47, 3.41, 1.96, 1.60, 7.17, repro,
2008-02-15,0.80, 0.95, 2.24, 2.01, 1.63, 7.36, repro,
2008-02-16,1.21, 0.91, 2.37, 1.96, 1.61, 7.20, repro,
2008-02-17,0.91, -0.82, 1.24, 1.96, 1.60, 7.14, repro,
2008-02-18,1.74, -0.34, 0.28, 1.94, 1.59, 7.11, repro,
2008-02-19,1.46, 0.27, -1.54, 1.95, 1.58, 7.14, repro,
2008-02-20,0.88, 0.79, 4.99, 1.96, 1.59, 7.19, repro,
2008-02-21,0.66, 0.38, 7.11, 1.95, 1.60, 7.16, repro,
2008-02-22,0.99, 0.04, 1.71, 1.96, 1.60, 7.18, repro,
2008-02-23,0.53, -0.02, 0.79, 1.96, 1.59, 7.16, repro,
2008-02-24,1.83, 0.29, -1.71, 1.96, 1.60, 7.22, repro,
2008-02-25,1.39, 0.56, 3.60, 1.96, 1.60, 7.19, repro,
2008-02-26,1.53, 0.26, -6.32, 1.96, 1.61, 7.19, repro,
2008-02-27,0.81, -0.13, -5.36, 1.96, 1.60, 7.19, repro,
2008-02-28,1.64, -0.47, -3.91, 2.01, 1.68, 7.49, repro,
2008-02-29,1.63, -0.38, -5.91, 3.07, 2.42, 11.46, repro,
2008-03-01,1.60, -0.19, -3.33, 2.02, 1.71, 7.56, repro,
2008-03-02,2.40, -0.49, 5.87, 2.08, 1.70, 7.60, repro,
2008-03-03,1.64, -0.75, -1.99, 1.94, 1.59, 7.11, repro,
2008-03-04,-0.02, -0.50, -2.86, 1.99, 1.63, 7.36, repro,
2008-03-05,1.28, -1.17, -2.78, 2.06, 1.74, 7.58, repro,
2008-03-06,1.41, -0.12, -5.28, 2.40, 2.07, 8.96, repro,
2008-03-07,1.37, -0.52, -5.59, 1.96, 1.59, 7.17, repro,
2008-03-08,0.72, -0.59, 1.97, 2.00, 1.69, 7.51, repro,
2008-03-09,1.20, -0.83, -0.45, 1.96, 1.60, 7.18, repro,
2008-03-10,0.04, -0.36, -8.33, 2.77, 2.42, 10.25, repro,
2008-03-11,1.03, -0.30, -5.42, 1.98, 1.62, 7.35, repro,
2008-03-12,1.65, -0.51, 3.39, 2.08, 1.74, 7.89, repro,
2008-03-13,1.31, -1.04, 9.19, 2.01, 1.69, 7.56, repro,
2008-03-14,1.16, -1.11, 9.39, 1.98, 1.63, 7.38, repro,
2008-03-15,1.19, -0.83, 5.65, 1.98, 1.62, 7.32, repro,
2008-03-16,1.02, -0.69, 0.38, 2.03, 1.66, 7.57, repro,
2008-03-17,1.93, -1.26, 2.46, 2.11, 1.81, 7.91, repro,
2008-03-18,0.51, -1.24, 7.18, 2.04, 1.70, 7.54, repro,
2008-03-19,0.88, -0.80, 5.34, 2.00, 1.65, 7.33, repro,
2008-03-20,1.17, -0.47, 2.61, 1.98, 1.62, 7.15, repro,
2008-03-21,1.30, -1.23, -2.23, 2.01, 1.64, 7.32, repro,
2008-03-22,0.36, -1.30, -4.81, 1.99, 1.62, 7.19, repro,
2008-03-23,0.52, -0.66, -5.85, 2.01, 1.63, 7.28, repro,
2008-03-24,0.57, -1.00, -3.13, 1.97, 1.59, 7.05, repro,
2008-03-25,1.14, -0.71, 4.85, 2.01, 1.63, 7.11, repro,
2008-03-26,0.72, -0.80, 3.82, 2.01, 1.61, 7.09, repro,
2008-03-27,1.98, -1.94, 5.67, 1.96, 1.57, 6.98, repro,
2008-03-28,1.31, -1.43, 2.76, 2.00, 1.65, 7.11, repro,
2008-03-29,0.28, -0.29, 3.69, 1.96, 1.58, 6.98, repro,
2008-03-30,0.34, -0.58, 3.95, 1.97, 1.58, 7.04, repro,
2008-03-31,0.91, -2.28, 7.63, 1.95, 1.57, 6.95, repro,
2008-04-01,0.81, -0.84, 4.15, 1.96, 1.58, 6.99, repro,
2008-04-02,0.51, -1.72, 3.17, 1.99, 1.58, 7.01, repro,
2008-04-03,1.62, -1.16, 7.07, 1.97, 1.59, 7.00, repro,
2008-04-04,-0.19, -1.68, 1.94, 1.98, 1.58, 7.01, repro,
2008-04-05,0.10, -1.15, 5.52, 1.96, 1.58, 6.99, repro,
2008-04-06,0.89, -1.84, 3.02, 1.96, 1.57, 6.96, repro,
2008-04-07,1.94, -1.23, 3.00, 1.96, 1.59, 6.98, repro,
2008-04-08,1.38, -0.84, 3.47, 1.95, 1.57, 6.89, repro,
2008-04-09,0.98, -1.55, 5.28, 2.00, 1.62, 7.12, repro,
2008-04-10,1.10, -1.13, 10.20, 1.97, 1.57, 6.97, repro,
2008-04-11,0.42, -1.38, 4.62, 1.96, 1.57, 6.99, repro,
2008-04-12,0.38, -0.83, -2.87, 2.01, 1.61, 7.14, repro,
2008-04-13,1.07, -0.62, -0.81, 1.94, 1.57, 6.89, repro,
2008-04-14,0.60, -0.65, -2.92, 1.95, 1.57, 6.88, repro,
2008-04-15,0.18, -0.43, 5.13, 1.99, 1.62, 7.12, repro,
2008-04-16,1.70, -2.83, 7.40, 1.99, 1.61, 7.14, repro,
2008-04-17,2.30, -0.46, 4.75, 1.96, 1.57, 6.95, repro,
2008-04-18,1.08, -0.72, 0.70, 1.96, 1.57, 6.94, repro,
2008-04-19,2.18, -0.91, -3.34, 1.95, 1.57, 6.91, repro,
2008-04-20,0.70, 0.31, 7.21, 1.98, 1.61, 7.08, repro,
2008-04-21,1.04, -0.63, 5.00, 1.98, 1.57, 6.97, repro,
2008-04-22,0.05, -1.03, 0.54, 1.98, 1.59, 7.07, repro,
2008-04-23,1.61, 0.20, -4.30, 2.04, 1.62, 7.30, repro,
2008-04-24,1.66, -0.02, 5.51, 1.97, 1.59, 7.02, repro,
2008-04-25,1.71, -1.03, 0.21, 1.96, 1.57, 6.93, repro,
2008-04-26,0.83, -1.56, -3.02, 2.03, 1.61, 7.08, repro,
2008-04-27,0.79, -1.08, -4.65, 2.06, 1.62, 7.17, repro,
2008-04-28,0.87, -0.31, -5.27, 1.99, 1.59, 7.05, repro,
2008-04-29,0.46, -0.47, -2.26, 2.08, 1.71, 7.53, repro,
2008-04-30,2.72, -0.21, 5.25, 2.01, 1.61, 7.17, repro,
2008-05-01,2.01, -1.27, 1.37, 2.02, 1.59, 7.10, repro,
2008-05-02,0.26, -2.10, 7.98, 2.03, 1.60, 7.14, repro,
2008-05-03,1.20, -0.50, -1.69, 2.05, 1.61, 7.24, repro,
2008-05-04,1.64, -0.47, -2.16, 1.99, 1.57, 6.99, repro,
2008-05-05,1.73, -0.45, -3.51, 2.02, 1.59, 7.12, repro,
2008-05-06,1.63, -1.37, -0.59, 2.02, 1.59, 7.09, repro,
2008-05-07,1.69, -0.42, 2.61, 2.02, 1.63, 7.11, repro,
2008-05-08,1.66, -2.03, -0.15, 2.03, 1.63, 7.19, repro,
2008-05-09,1.89, -1.67, -1.65, 1.99, 1.57, 6.93, repro,
2008-05-10,-0.13, -3.10, -5.55, 1.98, 1.57, 6.95, repro,
2008-05-11,1.27, -1.69, 3.47, 1.97, 1.57, 6.90, repro,
2008-05-12,1.85, -1.19, 2.25, 2.02, 1.61, 7.16, repro,
2008-05-13,1.67, -1.94, 0.66, 1.99, 1.60, 7.03, repro,
2008-05-14,1.27, -1.67, 1.02, 1.99, 1.57, 6.91, repro,
2008-05-15,1.51, -1.30, -6.92, 1.99, 1.59, 6.97, repro,
2008-05-16,0.16, -1.56, -7.26, 2.01, 1.61, 7.03, repro,
2008-05-17,1.22, -2.23, -2.80, 1.98, 1.58, 6.93, repro,
2008-05-18,1.55, -1.90, -0.14, 2.01, 1.61, 7.13, repro,
2008-05-19,1.09, -2.05, 2.06, 1.97, 1.57, 6.90, repro,
2008-05-20,0.76, -1.45, 4.98, 2.21, 1.75, 7.77, repro,
2008-05-22,0.72, -1.83, 10.48, 2.01, 1.64, 7.17, repro,
2008-05-23,1.41, -2.23, 10.83, 1.98, 1.61, 7.09, repro,
2008-05-24,1.54, -3.95, -1.98, 2.01, 1.60, 7.12, repro,
2008-05-25,1.68, -1.44, 6.28, 2.01, 1.60, 7.12, repro,
2008-05-26,1.25, -2.68, 7.41, 2.00, 1.61, 7.11, repro,
2008-05-27,1.02, -1.67, 1.56, 2.02, 1.62, 7.19, repro,
2008-05-28,-0.06, -1.50, -1.69, 2.01, 1.61, 7.16, repro,
2008-05-29,2.40, -2.62, -13.69, 2.51, 2.11, 9.28, repro,
2008-05-30,1.56, -2.09, 3.67, 2.01, 1.60, 7.13, repro,
2008-05-31,0.11, -1.75, 5.15, 2.00, 1.60, 7.13, repro,
2008-06-01,-0.05, -1.29, -0.36, 2.00, 1.59, 7.10, repro,
2008-06-02,0.82, -1.59, -3.97, 2.00, 1.61, 7.14, repro,
2008-06-03,-1.53, -1.36, 1.04, 2.51, 2.03, 9.20, repro,
2008-06-05,0.14, -2.84, 9.78, 1.98, 1.59, 6.99, repro,
2008-06-06,-0.37, 0.20, 7.76, 1.99, 1.62, 7.06, repro,
2008-06-07,1.17, -0.72, 8.73, 2.01, 1.67, 7.24, repro,
2008-06-08,0.10, -1.13, 7.81, 2.00, 1.63, 7.09, repro,
2008-06-09,1.60, -2.17, 6.39, 1.97, 1.58, 6.94, repro,
2008-06-10,0.43, -2.17, 2.75, 2.01, 1.62, 7.00, repro,
2008-06-12,0.30, -1.57, 6.13, 1.99, 1.59, 6.98, repro,
2008-06-13,0.39, -0.46, 0.32, 1.99, 1.58, 6.98, repro,
2008-06-14,1.03, -1.65, -10.00, 2.08, 1.72, 7.61, repro,
2008-06-15,0.21, -0.59, 3.87, 2.03, 1.61, 7.13, repro,
2008-06-16,1.32, -1.14, 2.73, 1.96, 1.59, 6.88, repro,
2008-06-17,-0.01, -1.88, -1.05, 2.25, 1.70, 7.81, repro,
2008-06-20,0.21, -2.00, -0.20, 2.09, 1.68, 7.36, repro,
2008-06-21,0.52, -0.38, -2.79, 2.02, 1.62, 7.13, repro,
2008-06-22,0.21, -1.18, 0.62, 1.98, 1.57, 6.91, repro,
2008-06-23,-0.02, -1.87, 1.17, 1.98, 1.58, 6.97, repro,
2008-06-24,-0.15, -0.70, 1.38, 2.02, 1.64, 7.09, repro,
2008-06-25,-1.43, 1.02, 5.86, 2.06, 1.59, 7.11, repro,
2008-06-26,1.08, -0.58, -0.80, 2.06, 1.65, 7.18, repro,
2008-06-27,1.33, -1.01, 2.05, 1.97, 1.57, 6.90, repro,
2008-06-28,0.54, -0.52, 2.73, 2.02, 1.62, 7.05, repro,
2008-06-29,0.81, 0.54, -3.97, 2.03, 1.64, 7.10, repro,
2008-06-30,1.30, 0.58, -4.31, 1.99, 1.59, 6.98, repro,
2008-07-01,-0.03, 0.52, 5.93, 2.12, 1.69, 7.36, repro,
2008-07-02,2.79, -0.51, -0.90, 2.03, 1.59, 7.05, repro,
2008-07-03,0.49, 0.72, -1.30, 1.99, 1.57, 6.93, repro,
2008-07-04,1.74, 0.00, -0.55, 2.03, 1.63, 7.16, repro,
2008-07-05,0.78, 0.40, -3.43, 1.99, 1.60, 7.04, repro,
2008-07-06,0.54, 0.47, 3.70, 2.03, 1.64, 7.16, repro,
2008-07-07,0.74, -0.10, 3.33, 2.03, 1.62, 6.99, repro,
2008-07-08,1.52, 2.36, 2.84, 1.99, 1.58, 6.97, repro,
2008-07-09,0.48, 1.20, 1.98, 2.01, 1.60, 7.09, repro,
2008-07-10,-0.57, 0.78, 10.27, 2.08, 1.63, 7.27, repro,
2008-07-11,2.37, -0.17, 2.38, 2.09, 1.66, 7.35, repro,
2008-07-12,1.08, 0.23, 1.82, 1.98, 1.58, 6.92, repro,
2008-07-13,1.48, 0.44, -1.25, 2.07, 1.67, 7.25, repro,
2008-07-14,2.93, 0.19, 0.16, 2.07, 1.67, 7.27, repro,
2008-07-15,1.16, -1.33, 4.74, 2.06, 1.67, 7.32, repro,
2008-07-16,1.88, 1.15, 0.92, 1.96, 1.58, 6.93, repro,
2008-07-17,2.91, 1.50, 1.95, 1.95, 1.59, 6.92, repro,
2008-07-18,1.73, -0.38, -0.02, 2.27, 1.79, 8.13, repro,
2008-07-19,-1.20, 0.34, 4.11, 2.02, 1.61, 7.13, repro,
2008-07-20,2.82, 0.25, -0.37, 1.99, 1.61, 7.09, repro,
2008-07-21,0.96, -1.29, 4.88, 2.02, 1.63, 7.14, repro,
2008-07-22,-1.13, -1.23, 4.16, 1.98, 1.60, 7.02, repro,
2008-07-23,-1.38, 0.78, -3.37, 2.05, 1.64, 7.24, repro,
2008-07-24,0.77, 0.75, -2.79, 2.00, 1.61, 7.11, repro,
2008-07-25,-2.83, -1.25, 29.90, 6.25, 6.05, 27.80, repro,
2008-07-30,4.60, -0.98, -1.13, 4.16, 3.39, 14.72, repro,
2008-08-01,2.23, -0.63, -2.19, 1.97, 1.57, 6.93, repro,
2008-08-02,2.04, -1.06, 6.92, 1.94, 1.56, 6.84, repro,
2008-08-03,0.57, -0.37, 4.82, 2.02, 1.58, 7.14, repro,
2008-08-04,3.98, 0.39, 6.62, 2.65, 2.11, 9.43, repro,
2008-08-05,1.64, -0.94, 3.02, 2.05, 1.60, 7.23, repro,
2008-08-06,1.78, 1.40, 3.52, 2.01, 1.60, 7.10, repro,
2008-08-07,1.91, 0.16, 4.71, 2.05, 1.65, 7.17, repro,
2008-08-08,2.12, -0.43, 4.10, 1.98, 1.61, 6.96, repro,
2008-08-09,2.05, -0.53, 6.17, 1.95, 1.59, 6.96, repro,
2008-08-10,0.46, 0.64, 13.51, 2.00, 1.63, 7.21, repro,
2008-08-11,-0.52, -0.15, 8.14, 2.32, 1.87, 8.31, repro,
2008-08-12,2.35, 0.77, -1.40, 1.97, 1.58, 6.93, repro,
2008-08-13,1.78, 0.78, 7.22, 2.16, 1.66, 7.39, repro,
2008-08-14,1.38, 2.06, 7.38, 2.06, 1.70, 7.31, repro,
2008-08-15,1.88, -0.76, 4.58, 2.00, 1.61, 7.10, repro,
2008-08-16,1.34, -1.07, -2.51, 1.98, 1.59, 7.02, repro,
2008-08-17,0.49, 0.14, 2.89, 1.98, 1.59, 6.99, repro,
2008-08-18,0.52, -0.95, 4.24, 1.99, 1.58, 6.94, repro,
2008-08-19,1.11, -1.10, 4.82, 1.95, 1.57, 6.83, repro,
2008-08-20,1.27, -0.28, 7.00, 1.96, 1.58, 6.92, repro,
2008-08-21,0.65, 0.32, 11.10, 1.96, 1.57, 6.92, repro,
2008-08-22,0.27, -0.99, 8.55, 1.98, 1.59, 7.00, repro,
2008-08-23,3.85, -2.87, -3.25, 2.34, 1.83, 8.12, repro,
2008-08-24,1.14, 0.08, 0.40, 2.16, 1.74, 7.55, repro,
2008-08-25,2.18, -0.13, 5.55, 2.17, 1.76, 7.71, repro,
2008-08-26,0.70, -0.27, 12.85, 2.00, 1.59, 7.06, repro,
2008-08-27,1.24, -1.25, 6.05, 2.05, 1.67, 7.30, repro,
2008-08-28,1.05, -0.80, 13.41, 2.07, 1.63, 7.25, repro,
2008-08-29,2.72, 0.77, 3.59, 2.00, 1.62, 7.08, repro,
2008-08-30,2.19, 0.90, 5.12, 2.07, 1.71, 7.34, repro,
2008-08-31,0.44, 0.05, 8.28, 1.97, 1.59, 6.95, repro,
2008-09-01,1.64, -1.21, 3.94, 2.03, 1.64, 7.20, repro,
2008-09-02,0.62, -0.23, 4.83, 1.99, 1.60, 6.99, repro,
2008-09-03,1.53, -0.26, 2.47, 1.97, 1.60, 6.93, repro,
2008-09-04,2.41, -0.65, 2.33, 2.12, 1.66, 7.38, repro,
2008-09-05,0.96, 0.28, 2.44, 2.07, 1.67, 7.42, repro,
2008-09-06,1.97, 0.14, 3.19, 2.00, 1.65, 7.15, repro,
2008-09-07,1.35, -0.67, 5.43, 2.03, 1.66, 7.11, repro,
2008-09-08,1.69, 0.54, 0.36, 1.99, 1.61, 7.00, repro,
2008-09-09,2.38, 0.11, -1.15, 1.97, 1.58, 6.93, repro,
2008-09-10,0.80, 1.40, -1.69, 2.15, 1.69, 7.48, repro,
2008-09-11,1.32, -0.35, 4.49, 2.11, 1.75, 7.54, repro,
2008-09-12,1.54, -0.30, 12.38, 2.12, 1.73, 7.49, repro,
2008-09-13,0.82, -0.24, -2.00, 2.22, 1.71, 7.69, repro,
2008-09-14,1.77, -0.16, -0.67, 2.02, 1.63, 7.14, repro,
2008-09-15,1.04, 0.37, -3.55, 2.03, 1.63, 7.20, repro,
2008-09-16,0.29, 0.66, 1.45, 2.08, 1.68, 7.44, repro,
2008-09-17,0.45, 1.35, 3.05, 2.10, 1.66, 7.42, repro,
2008-09-18,0.72, 0.19, -4.40, 2.00, 1.61, 7.03, repro,
2008-09-19,2.38, -0.33, 2.35, 1.98, 1.61, 6.99, repro,
2008-09-20,1.65, 0.33, 1.84, 2.03, 1.63, 7.14, repro,
2008-09-21,1.78, 0.87, -2.46, 2.00, 1.62, 7.11, repro,
2008-09-22,2.02, 0.29, -4.98, 1.97, 1.58, 6.93, repro,
2008-09-23,1.61, 0.23, -0.32, 2.00, 1.59, 7.00, repro,
2008-09-25,1.31, -0.53, -1.48, 2.05, 1.71, 7.35, repro,
2008-09-26,0.90, 0.73, 4.57, 1.96, 1.59, 6.94, repro,
2008-09-27,1.51, 0.31, 2.89, 2.03, 1.67, 7.15, repro,
2008-09-28,1.94, 0.26, 5.24, 2.02, 1.61, 7.15, repro,
2008-09-29,0.78, -1.18, 0.64, 2.07, 1.74, 7.35, repro,
2008-09-30,1.04, 0.11, 2.41, 1.95, 1.58, 6.89, repro,
2008-10-01,1.17, 0.35, 0.13, 2.02, 1.64, 7.17, repro,
2008-10-02,2.83, 0.35, -5.31, 2.53, 2.10, 9.15, repro,
2008-10-03,1.59, -0.14, -0.10, 2.13, 1.73, 7.47, repro,
2008-10-04,1.42, -0.35, 5.72, 1.96, 1.58, 6.92, repro,
2008-10-05,1.78, 1.09, 7.62, 1.96, 1.57, 6.88, repro,
2008-10-06,1.26, 1.12, 8.16, 2.00, 1.60, 7.02, repro,
2008-10-07,1.72, 0.08, 1.13, 1.99, 1.59, 7.06, repro,
2008-10-08,0.89, 0.24, 3.26, 1.99, 1.61, 7.02, repro,
2008-10-09,0.68, 0.38, 4.58, 1.95, 1.57, 6.84, repro,
2008-10-10,1.50, -0.77, 5.78, 1.99, 1.61, 6.96, repro,
2008-10-11,1.75, -0.96, -8.31, 1.97, 1.59, 6.90, repro,
2008-10-12,1.25, 0.82, -2.06, 1.98, 1.61, 7.03, repro,
2008-10-13,1.15, 0.83, 1.01, 2.06, 1.67, 7.30, repro,
2008-10-14,0.79, -0.06, -2.89, 1.96, 1.58, 6.89, repro,
2008-10-15,0.63, 0.03, -5.76, 2.02, 1.58, 7.04, repro,
2008-10-16,0.55, 0.34, -6.16, 2.01, 1.57, 6.99, repro,
2008-10-17,0.98, 0.26, -8.05, 1.96, 1.57, 6.88, repro,
2008-10-18,0.64, 0.33, -7.14, 1.96, 1.58, 6.96, repro,
2008-10-19,0.58, 0.18, -3.54, 1.95, 1.58, 6.90, repro,
2008-10-20,0.53, -0.05, -3.24, 2.06, 1.63, 7.17, repro,
2008-10-21,1.24, -0.61, 0.45, 1.95, 1.56, 6.81, repro,
2008-10-22,1.38, 0.01, -7.81, 2.00, 1.69, 7.33, repro,
2008-10-23,0.94, 0.11, -2.29, 2.00, 1.66, 7.10, repro,
2008-10-24,1.73, 0.43, 4.16, 1.99, 1.61, 7.03, repro,
2008-10-25,0.50, 1.02, 4.41, 1.95, 1.57, 6.87, repro,
2008-10-26,2.26, -0.20, -4.88, 1.96, 1.56, 6.83, repro,
2008-10-27,0.94, 0.47, -12.43, 1.95, 1.57, 6.82, repro,
2008-10-28,1.51, 0.38, -14.20, 2.01, 1.61, 6.97, repro,
2008-10-29,1.48, 0.58, -3.20, 2.13, 1.79, 7.74, repro,
2008-10-30,1.43, 0.31, -4.23, 1.97, 1.58, 6.94, repro,
2008-10-31,1.03, 0.74, -7.92, 2.02, 1.60, 7.15, repro,
2008-11-01,2.92, -0.14, -9.44, 1.96, 1.58, 6.88, repro,
2008-11-02,1.54, 0.22, -3.34, 1.96, 1.60, 6.94, repro,
2008-11-03,0.07, 0.38, 6.52, 2.01, 1.67, 7.22, repro,
2008-11-04,1.42, 1.89, 6.87, 2.03, 1.67, 7.25, repro,
2008-11-05,0.91, 0.62, 5.64, 2.01, 1.65, 7.22, repro,
2008-11-06,1.05, -0.44, 0.09, 2.00, 1.61, 7.03, repro,
2008-11-07,1.16, -0.30, -2.38, 2.02, 1.66, 7.17, repro,
2008-11-08,1.01, 0.86, 2.23, 1.98, 1.61, 7.01, repro,
2008-11-09,1.77, 1.17, 5.76, 1.98, 1.60, 7.02, repro,
2008-11-10,1.38, 0.65, 7.31, 2.01, 1.65, 7.16, repro,
2008-11-11,0.99, 0.18, 2.99, 1.99, 1.61, 7.03, repro,
2008-11-12,1.21, -0.29, 1.90, 2.03, 1.64, 7.12, repro,